Year,Month,Day,Hour,Minute,Value (Times are PST for temperature in C)
2021,12,27,00,00,-9.50
2021,12,27,00,01,-9.50
2021,12,27,00,02,-9.50
2021,12,27,00,03,-9.60
2021,12,27,00,04,-9.60
2021,12,27,00,05,-9.60
2021,12,27,00,06,-9.60
2021,12,27,00,07,-9.60
2021,12,27,00,08,-9.60
2021,12,27,00,09,-9.60
2021,12,27,00,10,-9.60
2021,12,27,00,11,-9.60
2021,12,27,00,12,-9.60
2021,12,27,00,13,-9.60
2021,12,27,00,14,-9.60
2021,12,27,00,15,-9.70
2021,12,27,00,16,-9.70
2021,12,27,00,17,-9.70
2021,12,27,00,18,-9.70
2021,12,27,00,19,-9.70
2021,12,27,00,20,-9.70
2021,12,27,00,21,-9.70
2021,12,27,00,22,-9.70
2021,12,27,00,23,-9.80
2021,12,27,00,24,-9.80
2021,12,27,00,25,-9.80
2021,12,27,00,26,-9.80
2021,12,27,00,27,-9.80
2021,12,27,00,28,-9.80
2021,12,27,00,29,-9.80
2021,12,27,00,30,-9.80
2021,12,27,00,31,-9.80
2021,12,27,00,32,-9.80
2021,12,27,00,33,-9.80
2021,12,27,00,34,-9.80
2021,12,27,00,35,-9.90
2021,12,27,00,36,-9.90
2021,12,27,00,37,-9.90
2021,12,27,00,38,-9.90
2021,12,27,00,39,-9.90
2021,12,27,00,40,-9.90
2021,12,27,00,41,-9.90
2021,12,27,00,42,-9.90
2021,12,27,00,43,-9.90
2021,12,27,00,44,-9.90
2021,12,27,00,45,-9.90
2021,12,27,00,46,-10.00
2021,12,27,00,47,-10.00
2021,12,27,00,48,-10.00
2021,12,27,00,49,-10.10
2021,12,27,00,50,-10.10
2021,12,27,00,51,-10.10
2021,12,27,00,52,-10.10
2021,12,27,00,53,-10.10
2021,12,27,00,54,-10.10
2021,12,27,00,55,-10.10
2021,12,27,00,56,-10.10
2021,12,27,00,57,-10.10
2021,12,27,00,58,-10.20
2021,12,27,00,59,-10.20
2021,12,27,01,00,-10.20
2021,12,27,01,01,-10.20
2021,12,27,01,02,-10.20
2021,12,27,01,03,-10.20
2021,12,27,01,04,-10.20
2021,12,27,01,05,-10.20
2021,12,27,01,06,-10.30
2021,12,27,01,07,-10.30
2021,12,27,01,08,-10.30
2021,12,27,01,09,-10.30
2021,12,27,01,10,-10.30
2021,12,27,01,11,-10.30
2021,12,27,01,12,-10.30
2021,12,27,01,13,-10.30
2021,12,27,01,14,-10.30
2021,12,27,01,15,-10.40
2021,12,27,01,16,-10.40
2021,12,27,01,17,-10.40
2021,12,27,01,18,-10.50
2021,12,27,01,19,-10.50
2021,12,27,01,20,-10.50
2021,12,27,01,21,-10.60
2021,12,27,01,22,-10.60
2021,12,27,01,23,-10.60
2021,12,27,01,24,-10.70
2021,12,27,01,25,-10.70
2021,12,27,01,26,-10.70
2021,12,27,01,27,-10.70
2021,12,27,01,28,-10.70
2021,12,27,01,29,-10.70
2021,12,27,01,30,-10.80
2021,12,27,01,31,-10.80
2021,12,27,01,32,-10.80
2021,12,27,01,33,-10.80
2021,12,27,01,34,-10.80
2021,12,27,01,35,-10.80
2021,12,27,01,36,-10.80
2021,12,27,01,37,-10.80
2021,12,27,01,38,-10.90
2021,12,27,01,39,-10.90
2021,12,27,01,40,-10.90
2021,12,27,01,41,-10.90
2021,12,27,01,42,-10.90
2021,12,27,01,43,-11.00
2021,12,27,01,44,-11.00
2021,12,27,01,45,-11.00
2021,12,27,01,46,-11.00
2021,12,27,01,47,-11.10
2021,12,27,01,48,-11.10
2021,12,27,01,49,-11.10
2021,12,27,01,50,-11.10
2021,12,27,01,51,-11.10
2021,12,27,01,52,-11.10
2021,12,27,01,53,-11.20
2021,12,27,01,54,-11.20
2021,12,27,01,55,-11.20
2021,12,27,01,56,-11.20
2021,12,27,01,57,-11.20
2021,12,27,01,58,-11.20
2021,12,27,01,59,-11.20
2021,12,27,02,00,-11.20
2021,12,27,02,01,-11.20
2021,12,27,02,02,-11.20
2021,12,27,02,03,-11.20
2021,12,27,02,04,-11.20
2021,12,27,02,05,-11.20
2021,12,27,02,06,-11.20
2021,12,27,02,07,-11.30
2021,12,27,02,08,-11.30
2021,12,27,02,09,-11.30
2021,12,27,02,10,-11.30
2021,12,27,02,11,-11.30
2021,12,27,02,12,-11.30
2021,12,27,02,13,-11.30
2021,12,27,02,14,-11.30
2021,12,27,02,15,-11.30
2021,12,27,02,16,-11.30
2021,12,27,02,17,-11.30
2021,12,27,02,18,-11.30
2021,12,27,02,19,-11.30
2021,12,27,02,20,-11.40
2021,12,27,02,21,-11.40
2021,12,27,02,22,-11.40
2021,12,27,02,23,-11.40
2021,12,27,02,24,-11.40
2021,12,27,02,25,-11.40
2021,12,27,02,26,-11.40
2021,12,27,02,27,-11.40
2021,12,27,02,28,-11.50
2021,12,27,02,29,-11.50
2021,12,27,02,30,-11.50
2021,12,27,02,31,-11.50
2021,12,27,02,32,-11.60
2021,12,27,02,33,-11.60
2021,12,27,02,34,-11.60
2021,12,27,02,35,-11.60
2021,12,27,02,36,-11.60
2021,12,27,02,37,-11.60
2021,12,27,02,38,-11.70
2021,12,27,02,39,-11.70
2021,12,27,02,40,-11.70
2021,12,27,02,41,-11.70
2021,12,27,02,42,-11.70
2021,12,27,02,43,-11.70
2021,12,27,02,44,-11.70
2021,12,27,02,45,-11.70
2021,12,27,02,46,-11.70
2021,12,27,02,47,-11.70
2021,12,27,02,48,-11.70
2021,12,27,02,49,-11.70
2021,12,27,02,50,-11.70
2021,12,27,02,51,-11.70
2021,12,27,02,52,-11.70
2021,12,27,02,53,-11.70
2021,12,27,02,54,-11.70
2021,12,27,02,55,-11.70
2021,12,27,02,56,-11.70
2021,12,27,02,57,-11.70
2021,12,27,02,58,-11.70
2021,12,27,02,59,-11.70
2021,12,27,03,00,-11.70
2021,12,27,03,01,-11.70
2021,12,27,03,02,-11.70
2021,12,27,03,03,-11.70
2021,12,27,03,04,-11.70
2021,12,27,03,05,-11.70
2021,12,27,03,06,-11.70
2021,12,27,03,07,-11.70
2021,12,27,03,08,-11.80
2021,12,27,03,09,-11.80
2021,12,27,03,10,-11.80
2021,12,27,03,11,-11.80
2021,12,27,03,12,-11.80
2021,12,27,03,13,-11.80
2021,12,27,03,14,-11.80
2021,12,27,03,15,-11.90
2021,12,27,03,16,-11.90
2021,12,27,03,17,-11.90
2021,12,27,03,18,-11.90
2021,12,27,03,19,-11.90
2021,12,27,03,20,-11.90
2021,12,27,03,21,-11.90
2021,12,27,03,22,-12.00
2021,12,27,03,23,-12.00
2021,12,27,03,24,-12.00
2021,12,27,03,25,-12.00
2021,12,27,03,26,-12.10
2021,12,27,03,27,-12.10
2021,12,27,03,28,-12.10
2021,12,27,03,29,-12.10
2021,12,27,03,30,-12.10
2021,12,27,03,31,-12.10
2021,12,27,03,32,-12.10
2021,12,27,03,33,-12.20
2021,12,27,03,34,-12.20
2021,12,27,03,35,-12.20
2021,12,27,03,36,-12.20
2021,12,27,03,37,-12.20
2021,12,27,03,38,-12.20
2021,12,27,03,39,-12.20
2021,12,27,03,40,-12.20
2021,12,27,03,41,-12.30
2021,12,27,03,42,-12.30
2021,12,27,03,43,-12.30
2021,12,27,03,44,-12.30
2021,12,27,03,45,-12.30
2021,12,27,03,46,-12.30
2021,12,27,03,47,-12.30
2021,12,27,03,48,-12.30
2021,12,27,03,49,-12.30
2021,12,27,03,50,-12.40
2021,12,27,03,51,-12.40
2021,12,27,03,52,-12.40
2021,12,27,03,53,-12.40
2021,12,27,03,54,-12.40
2021,12,27,03,55,-12.50
2021,12,27,03,56,-12.50
2021,12,27,03,57,-12.50
2021,12,27,03,58,-12.60
2021,12,27,03,59,-12.60
2021,12,27,04,00,-12.60
2021,12,27,04,01,-12.60
2021,12,27,04,02,-12.60
2021,12,27,04,03,-12.60
2021,12,27,04,04,-12.70
2021,12,27,04,05,-12.70
2021,12,27,04,06,-12.70
2021,12,27,04,07,-12.70
2021,12,27,04,08,-12.70
2021,12,27,04,09,-12.70
2021,12,27,04,10,-12.80
2021,12,27,04,11,-12.80
2021,12,27,04,12,-12.80
2021,12,27,04,13,-12.80
2021,12,27,04,14,-12.80
2021,12,27,04,15,-12.80
2021,12,27,04,16,-12.80
2021,12,27,04,17,-12.80
2021,12,27,04,18,-12.80
2021,12,27,04,19,-12.80
2021,12,27,04,20,-12.90
2021,12,27,04,21,-12.90
2021,12,27,04,22,-12.90
2021,12,27,04,23,-12.90
2021,12,27,04,24,-12.90
2021,12,27,04,25,-12.90
2021,12,27,04,26,-12.90
2021,12,27,04,27,-12.90
2021,12,27,04,28,-12.90
2021,12,27,04,29,-12.90
2021,12,27,04,30,-12.90
2021,12,27,04,31,-12.90
2021,12,27,04,32,-12.90
2021,12,27,04,33,-12.90
2021,12,27,04,34,-12.90
2021,12,27,04,35,-12.90
2021,12,27,04,36,-13.00
2021,12,27,04,37,-12.90
2021,12,27,04,38,-12.90
2021,12,27,04,39,-12.90
2021,12,27,04,40,-12.90
2021,12,27,04,41,-12.90
2021,12,27,04,42,-12.90
2021,12,27,04,43,-12.90
2021,12,27,04,44,-12.90
2021,12,27,04,45,-12.90
2021,12,27,04,46,-12.90
2021,12,27,04,47,-12.90
2021,12,27,04,48,-12.90
2021,12,27,04,49,-12.90
2021,12,27,04,50,-12.90
2021,12,27,04,51,-12.90
2021,12,27,04,52,-13.00
2021,12,27,04,53,-13.00
2021,12,27,04,54,-13.00
2021,12,27,04,55,-13.00
2021,12,27,04,56,-13.00
2021,12,27,04,57,-13.00
2021,12,27,04,58,-13.00
2021,12,27,04,59,-13.00
2021,12,27,05,00,-13.00
2021,12,27,05,01,-13.00
2021,12,27,05,02,-13.00
2021,12,27,05,03,-13.00
2021,12,27,05,04,-13.10
2021,12,27,05,05,-13.10
2021,12,27,05,06,-13.10
2021,12,27,05,07,-13.10
2021,12,27,05,08,-13.10
2021,12,27,05,09,-13.10
2021,12,27,05,10,-13.10
2021,12,27,05,11,-13.10
2021,12,27,05,12,-13.10
2021,12,27,05,13,-13.10
2021,12,27,05,14,-13.20
2021,12,27,05,15,-13.20
2021,12,27,05,16,-13.20
2021,12,27,05,17,-13.20
2021,12,27,05,18,-13.20
2021,12,27,05,19,-13.20
2021,12,27,05,20,-13.20
2021,12,27,05,21,-13.20
2021,12,27,05,22,-13.20
2021,12,27,05,23,-13.20
2021,12,27,05,24,-13.20
2021,12,27,05,25,-13.20
2021,12,27,05,26,-13.20
2021,12,27,08,32,-12.80
2021,12,27,08,33,-12.80
2021,12,27,08,34,-12.70
2021,12,27,08,35,-12.70
2021,12,27,08,36,-12.70
2021,12,27,08,37,-12.70
2021,12,27,08,38,-12.70
2021,12,27,08,39,-12.70
2021,12,27,08,40,-12.70
2021,12,27,08,41,-12.70
2021,12,27,08,42,-12.60
2021,12,27,08,43,-12.60
2021,12,27,08,44,-12.60
2021,12,27,08,45,-12.60
2021,12,27,08,46,-12.60
2021,12,27,08,47,-12.50
2021,12,27,08,48,-12.50
2021,12,27,08,49,-12.40
2021,12,27,08,50,-12.40
2021,12,27,08,51,-12.40
2021,12,27,08,52,-12.30
2021,12,27,08,53,-12.30
2021,12,27,08,54,-12.30
2021,12,27,08,55,-12.30
2021,12,27,08,56,-12.20
2021,12,27,08,57,-12.20
2021,12,27,08,58,-12.20
2021,12,27,08,59,-12.20
2021,12,27,09,00,-12.20
2021,12,27,09,01,-12.20
2021,12,27,09,02,-12.10
2021,12,27,09,03,-12.10
2021,12,27,09,04,-12.10
2021,12,27,09,05,-12.10
2021,12,27,09,06,-12.10
2021,12,27,09,07,-12.10
2021,12,27,09,08,-12.10
2021,12,27,09,09,-12.20
2021,12,27,09,10,-12.20
2021,12,27,09,11,-12.20
2021,12,27,09,12,-12.10
2021,12,27,09,13,-12.10
2021,12,27,09,14,-12.20
2021,12,27,09,15,-12.10
2021,12,27,09,16,-12.10
2021,12,27,09,17,-12.10
2021,12,27,09,18,-12.10
2021,12,27,09,19,-12.10
2021,12,27,09,20,-12.10
2021,12,27,09,21,-12.10
2021,12,27,09,22,-12.10
2021,12,27,09,23,-12.00
2021,12,27,09,24,-12.00
2021,12,27,09,25,-11.90
2021,12,27,09,26,-11.90
2021,12,27,09,27,-11.90
2021,12,27,09,28,-11.80
2021,12,27,09,29,-11.80
2021,12,27,09,30,-11.70
2021,12,27,09,31,-11.70
2021,12,27,09,32,-11.70
2021,12,27,09,33,-11.60
2021,12,27,09,34,-11.60
2021,12,27,09,35,-11.60
2021,12,27,09,36,-11.50
2021,12,27,09,37,-11.50
2021,12,27,09,38,-11.50
2021,12,27,09,39,-11.50
2021,12,27,09,40,-11.50
2021,12,27,09,41,-11.50
2021,12,27,09,42,-11.50
2021,12,27,09,43,-11.50
2021,12,27,09,44,-11.50
2021,12,27,09,45,-11.50
2021,12,27,09,46,-11.50
2021,12,27,09,47,-11.60
2021,12,27,09,48,-11.60
2021,12,27,09,49,-11.60
2021,12,27,09,50,-11.60
2021,12,27,09,51,-11.60
2021,12,27,09,52,-11.60
2021,12,27,09,53,-11.60
2021,12,27,09,54,-11.60
2021,12,27,09,55,-11.60
2021,12,27,09,56,-11.60
2021,12,27,09,57,-11.60
2021,12,27,09,58,-11.60
2021,12,27,09,59,-11.50
2021,12,27,10,00,-11.50
2021,12,27,10,01,-11.50
2021,12,27,10,02,-11.50
2021,12,27,10,03,-11.40
2021,12,27,10,04,-11.40
2021,12,27,10,05,-11.30
2021,12,27,10,06,-11.30
2021,12,27,10,07,-11.30
2021,12,27,10,08,-11.20
2021,12,27,10,09,-11.20
2021,12,27,10,10,-11.20
2021,12,27,10,11,-11.10
2021,12,27,10,12,-11.10
2021,12,27,10,13,-11.10
2021,12,27,10,14,-11.10
2021,12,27,10,15,-11.10
2021,12,27,10,16,-11.10
2021,12,27,10,17,-11.00
2021,12,27,10,18,-11.00
2021,12,27,10,19,-11.00
2021,12,27,10,20,-11.00
2021,12,27,10,21,-10.90
2021,12,27,10,22,-10.90
2021,12,27,10,23,-10.90
2021,12,27,10,24,-10.90
2021,12,27,10,25,-10.90
2021,12,27,10,26,-10.80
2021,12,27,10,27,-10.80
2021,12,27,10,28,-10.80
2021,12,27,10,29,-10.80
2021,12,27,10,30,-10.80
2021,12,27,10,31,-10.80
2021,12,27,10,32,-10.90
2021,12,27,10,33,-10.90
2021,12,27,10,34,-10.90
2021,12,27,10,35,-10.90
2021,12,27,10,36,-10.80
2021,12,27,10,37,-10.80
2021,12,27,10,38,-10.80
2021,12,27,10,39,-10.80
2021,12,27,10,40,-10.70
2021,12,27,10,41,-10.70
2021,12,27,10,42,-10.70
2021,12,27,10,43,-10.70
2021,12,27,10,44,-10.60
2021,12,27,10,45,-10.60
2021,12,27,10,46,-10.50
2021,12,27,10,47,-10.50
2021,12,27,10,48,-10.50
2021,12,27,10,49,-10.40
2021,12,27,10,50,-10.40
2021,12,27,10,51,-10.40
2021,12,27,10,52,-10.40
2021,12,27,10,53,-10.40
2021,12,27,10,54,-10.40
2021,12,27,10,55,-10.40
2021,12,27,10,56,-10.30
2021,12,27,10,57,-10.30
2021,12,27,10,58,-10.30
2021,12,27,10,59,-10.30
2021,12,27,11,00,-10.30
2021,12,27,11,01,-10.30
2021,12,27,11,02,-10.30
2021,12,27,11,03,-10.30
2021,12,27,11,04,-10.30
2021,12,27,11,05,-10.30
2021,12,27,11,06,-10.30
2021,12,27,11,07,-10.30
2021,12,27,11,08,-10.20
2021,12,27,11,09,-10.20
2021,12,27,11,10,-10.20
2021,12,27,11,11,-10.20
2021,12,27,11,12,-10.20
2021,12,27,11,13,-10.20
2021,12,27,11,14,-10.20
2021,12,27,11,15,-10.10
2021,12,27,11,16,-10.10
2021,12,27,11,17,-10.10
2021,12,27,11,18,-10.00
2021,12,27,11,19,-10.00
2021,12,27,11,20,-10.00
2021,12,27,11,21,-9.90
2021,12,27,11,22,-9.90
2021,12,27,11,23,-9.90
2021,12,27,11,24,-9.90
2021,12,27,11,25,-9.90
2021,12,27,11,26,-9.90
2021,12,27,11,27,-9.90
2021,12,27,11,28,-9.90
2021,12,27,11,29,-9.90
2021,12,27,11,30,-9.90
2021,12,27,11,31,-9.90
2021,12,27,11,32,-9.90
2021,12,27,11,33,-9.90
2021,12,27,11,34,-9.90
2021,12,27,11,35,-9.90
2021,12,27,11,36,-9.90
2021,12,27,11,37,-9.90
2021,12,27,11,38,-9.90
2021,12,27,11,39,-9.90
2021,12,27,11,40,-9.90
2021,12,27,11,41,-9.90
2021,12,27,11,42,-9.90
2021,12,27,11,43,-9.90
2021,12,27,11,44,-9.90
2021,12,27,11,45,-9.90
2021,12,27,11,46,-9.90
2021,12,27,11,47,-9.80
2021,12,27,11,48,-9.80
2021,12,27,11,49,-9.80
2021,12,27,11,50,-9.70
2021,12,27,11,51,-9.70
2021,12,27,11,52,-9.60
2021,12,27,11,53,-9.60
2021,12,27,11,54,-9.50
2021,12,27,11,55,-9.50
2021,12,27,11,56,-9.50
2021,12,27,11,57,-9.50
2021,12,27,11,58,-9.50
2021,12,27,11,59,-9.40
2021,12,27,12,00,-9.40
2021,12,27,12,01,-9.40
2021,12,27,12,02,-9.40
2021,12,27,12,03,-9.40
2021,12,27,12,04,-9.40
2021,12,27,12,05,-9.50
2021,12,27,12,06,-9.50
2021,12,27,12,07,-9.60
2021,12,27,12,08,-9.60
2021,12,27,12,09,-9.70
2021,12,27,12,10,-9.70
2021,12,27,12,11,-9.70
2021,12,27,12,12,-9.80
2021,12,27,12,13,-9.80
2021,12,27,12,14,-9.80
2021,12,27,12,15,-9.90
2021,12,27,12,16,-9.90
2021,12,27,12,17,-9.90
2021,12,27,12,18,-9.90
2021,12,27,12,19,-9.90
2021,12,27,12,20,-9.90
2021,12,27,12,21,-9.90
2021,12,27,12,22,-9.90
2021,12,27,12,23,-9.90
2021,12,27,12,24,-10.00
2021,12,27,12,25,-9.90
2021,12,27,12,26,-9.90
2021,12,27,12,27,-9.90
2021,12,27,12,28,-9.90
2021,12,27,12,29,-9.90
2021,12,27,12,30,-9.90
2021,12,27,12,31,-9.90
2021,12,27,12,32,-9.90
2021,12,27,12,33,-10.00
2021,12,27,12,34,-10.00
2021,12,27,12,35,-10.00
2021,12,27,12,36,-10.00
2021,12,27,12,37,-10.00
2021,12,27,12,38,-10.00
2021,12,27,12,39,-10.00
2021,12,27,12,40,-10.00
2021,12,27,12,41,-10.00
2021,12,27,12,42,-10.00
2021,12,27,12,43,-10.00
2021,12,27,12,44,-10.00
2021,12,27,12,45,-10.00
2021,12,27,12,46,-10.00
2021,12,27,12,47,-10.00
2021,12,27,12,48,-10.00
2021,12,27,12,49,-10.00
2021,12,27,12,50,-10.00
2021,12,27,12,51,-10.00
2021,12,27,12,52,-10.00
2021,12,27,12,53,-10.00
2021,12,27,12,54,-10.00
2021,12,27,12,55,-10.00
2021,12,27,12,56,-10.00
2021,12,27,12,57,-10.00
2021,12,27,12,58,-10.00
2021,12,27,12,59,-10.00
2021,12,27,13,00,-10.00
2021,12,27,13,01,-9.90
2021,12,27,13,02,-9.90
2021,12,27,13,03,-9.90
2021,12,27,13,04,-9.90
2021,12,27,13,05,-9.90
2021,12,27,13,06,-9.90
2021,12,27,13,07,-9.90
2021,12,27,13,08,-9.90
2021,12,27,13,09,-9.90
2021,12,27,13,10,-9.90
2021,12,27,13,11,-9.80
2021,12,27,13,12,-9.80
2021,12,27,13,13,-9.80
2021,12,27,13,14,-9.70
2021,12,27,13,15,-9.70
2021,12,27,13,16,-9.60
2021,12,27,13,17,-9.60
2021,12,27,13,18,-9.50
2021,12,27,13,19,-9.40
2021,12,27,13,20,-9.40
2021,12,27,13,21,-9.30
2021,12,27,13,22,-9.30
2021,12,27,13,23,-9.30
2021,12,27,13,24,-9.30
2021,12,27,13,25,-9.30
2021,12,27,13,26,-9.30
2021,12,27,13,27,-9.30
2021,12,27,13,28,-9.30
2021,12,27,13,29,-9.30
2021,12,27,13,30,-9.20
2021,12,27,13,31,-9.20
2021,12,27,13,32,-9.20
2021,12,27,13,33,-9.20
2021,12,27,13,34,-9.20
2021,12,27,13,35,-9.20
2021,12,27,13,36,-9.10
2021,12,27,13,37,-9.10
2021,12,27,13,38,-9.00
2021,12,27,13,39,-9.00
2021,12,27,13,40,-9.00
2021,12,27,13,41,-9.00
2021,12,27,13,42,-8.90
2021,12,27,13,43,-8.90
2021,12,27,13,44,-8.90
2021,12,27,13,45,-8.90
2021,12,27,13,46,-8.90
2021,12,27,13,47,-8.90
2021,12,27,13,48,-8.80
2021,12,27,13,49,-8.80
2021,12,27,13,50,-8.80
2021,12,27,13,51,-8.80
2021,12,27,13,52,-8.80
2021,12,27,13,53,-8.80
2021,12,27,13,54,-8.80
2021,12,27,13,55,-8.90
2021,12,27,13,56,-8.90
2021,12,27,13,57,-8.90
2021,12,27,13,58,-8.90
2021,12,27,13,59,-8.90
2021,12,27,14,00,-8.90
2021,12,27,14,01,-8.90
2021,12,27,14,02,-8.90
2021,12,27,14,03,-8.90
2021,12,27,14,04,-8.90
2021,12,27,14,05,-8.90
2021,12,27,14,06,-8.90
2021,12,27,14,07,-8.90
2021,12,27,14,08,-8.90
2021,12,27,14,09,-8.90
2021,12,27,14,10,-8.90
2021,12,27,14,11,-9.00
2021,12,27,14,12,-9.00
2021,12,27,14,13,-9.00
2021,12,27,14,14,-9.00
2021,12,27,14,15,-9.00
2021,12,27,14,16,-9.00
2021,12,27,14,17,-9.00
2021,12,27,14,18,-9.00
2021,12,27,14,19,-9.00
2021,12,27,14,20,-9.00
2021,12,27,14,21,-9.00
2021,12,27,14,22,-9.00
2021,12,27,14,23,-9.00
2021,12,27,14,24,-9.00
2021,12,27,14,25,-9.00
2021,12,27,14,26,-9.10
2021,12,27,14,27,-9.10
2021,12,27,14,28,-9.10
2021,12,27,14,29,-9.10
2021,12,27,14,30,-9.10
2021,12,27,14,31,-9.10
2021,12,27,14,32,-9.10
2021,12,27,14,33,-9.10
2021,12,27,14,34,-9.10
2021,12,27,14,35,-9.10
2021,12,27,14,36,-9.10
2021,12,27,14,37,-9.10
2021,12,27,14,38,-9.10
2021,12,27,14,39,-9.10
2021,12,27,14,40,-9.10
2021,12,27,14,41,-9.10
2021,12,27,14,42,-9.10
2021,12,27,14,43,-9.20
2021,12,27,14,44,-9.20
2021,12,27,14,45,-9.20
2021,12,27,14,46,-9.20
2021,12,27,14,47,-9.20
2021,12,27,14,48,-9.20
2021,12,27,14,49,-9.20
2021,12,27,14,50,-9.20
2021,12,27,14,51,-9.20
2021,12,27,14,52,-9.20
2021,12,27,14,53,-9.20
2021,12,27,14,54,-9.20
2021,12,27,14,55,-9.20
2021,12,27,14,56,-9.20
2021,12,27,14,57,-9.20
2021,12,27,14,58,-9.20
2021,12,27,14,59,-9.20
2021,12,27,15,00,-9.20
2021,12,27,15,01,-9.20
2021,12,27,15,02,-9.20
2021,12,27,15,03,-9.20
2021,12,27,15,04,-9.20
2021,12,27,15,05,-9.20
2021,12,27,15,06,-9.20
2021,12,27,15,07,-9.20
2021,12,27,15,08,-9.30
2021,12,27,15,09,-9.30
2021,12,27,15,10,-9.30
2021,12,27,15,11,-9.30
2021,12,27,15,12,-9.30
2021,12,27,15,13,-9.30
2021,12,27,15,14,-9.30
2021,12,27,15,15,-9.30
2021,12,27,15,16,-9.40
2021,12,27,15,17,-9.40
2021,12,27,15,18,-9.40
2021,12,27,15,19,-9.40
2021,12,27,15,20,-9.40
2021,12,27,15,21,-9.40
2021,12,27,15,22,-9.40
2021,12,27,15,23,-9.40
2021,12,27,15,24,-9.40
2021,12,27,15,25,-9.40
2021,12,27,15,26,-9.40
2021,12,27,15,27,-9.30
2021,12,27,15,28,-9.30
2021,12,27,15,29,-9.30
2021,12,27,15,30,-9.30
2021,12,27,15,31,-9.30
2021,12,27,15,32,-9.30
2021,12,27,15,33,-9.30
2021,12,27,15,34,-9.30
2021,12,27,15,35,-9.30
2021,12,27,15,36,-9.30
2021,12,27,15,37,-9.30
2021,12,27,15,38,-9.30
2021,12,27,15,39,-9.30
2021,12,27,15,40,-9.30
2021,12,27,15,41,-9.30
2021,12,27,15,42,-9.30
2021,12,27,15,43,-9.40
2021,12,27,15,44,-9.40
2021,12,27,15,45,-9.40
2021,12,27,15,46,-9.40
2021,12,27,15,47,-9.40
2021,12,27,15,48,-9.40
2021,12,27,15,49,-9.40
2021,12,27,15,50,-9.50
2021,12,27,15,51,-9.50
2021,12,27,15,52,-9.50
2021,12,27,15,53,-9.50
2021,12,27,15,54,-9.50
2021,12,27,15,55,-9.50
2021,12,27,15,56,-9.50
2021,12,27,15,57,-9.50
2021,12,27,15,58,-9.50
2021,12,27,15,59,-9.50
2021,12,27,16,00,-9.50
2021,12,27,16,01,-9.50
2021,12,27,16,02,-9.50
2021,12,27,16,03,-9.50
2021,12,27,16,04,-9.50
2021,12,27,16,05,-9.50
2021,12,27,16,06,-9.50
2021,12,27,16,07,-9.50
2021,12,27,16,08,-9.50
2021,12,27,16,09,-9.50
2021,12,27,16,10,-9.50
2021,12,27,16,11,-9.50
2021,12,27,16,12,-9.50
2021,12,27,16,13,-9.50
2021,12,27,16,14,-9.60
2021,12,27,16,15,-9.50
2021,12,27,16,16,-9.50
2021,12,27,16,17,-9.50
2021,12,27,16,18,-9.50
2021,12,27,16,19,-9.50
2021,12,27,16,20,-9.50
2021,12,27,16,21,-9.50
2021,12,27,16,22,-9.50
2021,12,27,16,23,-9.50
2021,12,27,16,24,-9.50
2021,12,27,16,25,-9.50
2021,12,27,16,26,-9.50
2021,12,27,16,27,-9.60
2021,12,27,16,28,-9.60
2021,12,27,16,29,-9.60
2021,12,27,16,30,-9.60
2021,12,27,16,31,-9.60
2021,12,27,16,32,-9.60
2021,12,27,16,33,-9.60
2021,12,27,16,34,-9.60
2021,12,27,16,35,-9.60
2021,12,27,16,36,-9.60
2021,12,27,16,37,-9.60
2021,12,27,16,38,-9.60
2021,12,27,16,39,-9.60
2021,12,27,16,40,-9.60
2021,12,27,16,41,-9.60
2021,12,27,16,42,-9.60
2021,12,27,16,43,-9.60
2021,12,27,16,44,-9.60
2021,12,27,16,45,-9.60
2021,12,27,16,46,-9.60
2021,12,27,16,47,-9.60
2021,12,27,16,48,-9.70
2021,12,27,16,49,-9.70
2021,12,27,16,50,-9.70
2021,12,27,16,51,-9.70
2021,12,27,16,52,-9.70
2021,12,27,16,53,-9.70
2021,12,27,16,54,-9.70
2021,12,27,16,55,-9.60
2021,12,27,16,56,-9.60
2021,12,27,16,57,-9.60
2021,12,27,16,58,-9.60
2021,12,27,16,59,-9.60
2021,12,27,17,00,-9.60
2021,12,27,17,01,-9.50
2021,12,27,17,02,-9.50
2021,12,27,17,03,-9.50
2021,12,27,17,04,-9.40
2021,12,27,17,05,-9.50
2021,12,27,17,06,-9.40
2021,12,27,17,07,-9.40
2021,12,27,17,08,-9.40
2021,12,27,17,09,-9.40
2021,12,27,17,10,-9.40
2021,12,27,17,11,-9.40
2021,12,27,17,12,-9.40
2021,12,27,17,13,-9.40
2021,12,27,17,14,-9.40
2021,12,27,17,15,-9.40
2021,12,27,17,16,-9.40
2021,12,27,17,17,-9.40
2021,12,27,17,18,-9.40
2021,12,27,17,19,-9.40
2021,12,27,17,20,-9.40
2021,12,27,17,21,-9.40
2021,12,27,17,22,-9.40
2021,12,27,17,23,-9.40
2021,12,27,17,24,-9.40
2021,12,27,17,25,-9.40
2021,12,27,17,26,-9.40
2021,12,27,17,27,-9.40
2021,12,27,17,28,-9.40
2021,12,27,17,29,-9.40
2021,12,27,17,30,-9.40
2021,12,27,17,31,-9.40
2021,12,27,17,32,-9.40
2021,12,27,17,33,-9.40
2021,12,27,17,34,-9.40
2021,12,27,17,35,-9.40
2021,12,27,17,36,-9.40
2021,12,27,17,37,-9.40
2021,12,27,17,38,-9.40
2021,12,27,17,39,-9.40
2021,12,27,17,40,-9.40
2021,12,27,17,41,-9.40
2021,12,27,17,42,-9.40
2021,12,27,17,43,-9.40
2021,12,27,17,44,-9.40
2021,12,27,17,45,-9.40
2021,12,27,17,46,-9.40
2021,12,27,17,47,-9.40
2021,12,27,17,48,-9.40
2021,12,27,17,49,-9.40
2021,12,27,17,50,-9.40
2021,12,27,17,51,-9.40
2021,12,27,17,52,-9.40
2021,12,27,17,53,-9.40
2021,12,27,17,54,-9.40
2021,12,27,17,55,-9.40
2021,12,27,17,56,-9.40
2021,12,27,17,57,-9.50
2021,12,27,17,58,-9.40
2021,12,27,17,59,-9.40
2021,12,27,18,00,-9.40
2021,12,27,18,01,-9.40
2021,12,27,18,02,-9.40
2021,12,27,18,03,-9.40
2021,12,27,18,04,-9.40
2021,12,27,18,05,-9.40
2021,12,27,18,06,-9.50
2021,12,27,18,07,-9.50
2021,12,27,18,08,-9.50
2021,12,27,18,09,-9.50
2021,12,27,18,10,-9.60
2021,12,27,18,11,-9.60
2021,12,27,18,12,-9.60
2021,12,27,18,13,-9.60
2021,12,27,18,14,-9.60
2021,12,27,18,15,-9.60
2021,12,27,18,16,-9.60
2021,12,27,18,17,-9.60
2021,12,27,18,18,-9.60
2021,12,27,18,19,-9.60
2021,12,27,18,20,-9.60
2021,12,27,18,21,-9.70
2021,12,27,18,22,-9.70
2021,12,27,18,23,-9.70
2021,12,27,18,24,-9.70
2021,12,27,18,25,-9.70
2021,12,27,18,26,-9.70
2021,12,27,18,27,-9.70
2021,12,27,18,28,-9.70
2021,12,27,18,29,-9.70
2021,12,27,18,30,-9.70
2021,12,27,18,31,-9.70
2021,12,27,18,32,-9.70
2021,12,27,18,33,-9.70
2021,12,27,18,34,-9.70
2021,12,27,18,35,-9.70
2021,12,27,18,36,-9.70
2021,12,27,18,37,-9.70
2021,12,27,18,38,-9.70
2021,12,27,18,39,-9.70
2021,12,27,18,40,-9.70
2021,12,27,18,41,-9.80
2021,12,27,18,42,-9.80
2021,12,27,18,43,-9.80
2021,12,27,18,44,-9.80
2021,12,27,18,45,-9.80
2021,12,27,18,46,-9.80
2021,12,27,18,47,-9.80
2021,12,27,18,48,-9.80
2021,12,27,18,49,-9.80
2021,12,27,18,50,-9.80
2021,12,27,18,51,-9.80
2021,12,27,18,52,-9.80
2021,12,27,18,53,-9.80
2021,12,27,18,54,-9.80
2021,12,27,18,55,-9.80
2021,12,27,18,56,-9.80
2021,12,27,18,57,-9.80
2021,12,27,18,58,-9.80
2021,12,27,18,59,-9.80
2021,12,27,19,00,-9.80
2021,12,27,19,01,-9.80
2021,12,27,19,02,-9.80
2021,12,27,19,03,-9.80
2021,12,27,19,04,-9.80
2021,12,27,19,05,-9.80
2021,12,27,19,06,-9.80
2021,12,27,19,07,-9.80
2021,12,27,19,08,-9.80
2021,12,27,19,09,-9.80
2021,12,27,19,10,-9.80
2021,12,27,19,11,-9.80
2021,12,27,19,12,-9.80
2021,12,27,19,13,-9.80
2021,12,27,19,14,-9.80
2021,12,27,19,15,-9.80
2021,12,27,19,16,-9.80
2021,12,27,19,17,-9.80
2021,12,27,19,18,-9.80
2021,12,27,19,19,-9.70
2021,12,27,19,20,-9.70
2021,12,27,19,21,-9.70
2021,12,27,19,22,-9.70
2021,12,27,19,23,-9.70
2021,12,27,19,24,-9.70
2021,12,27,19,25,-9.70
2021,12,27,19,26,-9.70
2021,12,27,19,27,-9.70
2021,12,27,19,28,-9.70
2021,12,27,19,29,-9.70
2021,12,27,19,30,-9.70
2021,12,27,19,31,-9.70
2021,12,27,19,32,-9.70
2021,12,27,19,33,-9.70
2021,12,27,19,34,-9.70
2021,12,27,19,35,-9.70
2021,12,27,19,36,-9.70
2021,12,27,19,37,-9.70
2021,12,27,19,38,-9.70
2021,12,27,19,39,-9.70
2021,12,27,19,40,-9.70
2021,12,27,19,41,-9.70
2021,12,27,19,42,-9.70
2021,12,27,19,43,-9.70
2021,12,27,19,44,-9.70
2021,12,27,19,45,-9.70
2021,12,27,19,46,-9.70
2021,12,27,19,47,-9.70
2021,12,27,19,48,-9.70
2021,12,27,19,49,-9.70
2021,12,27,19,50,-9.70
2021,12,27,19,51,-9.70
2021,12,27,19,52,-9.70
2021,12,27,19,53,-9.70
2021,12,27,19,54,-9.70
2021,12,27,19,55,-9.70
2021,12,27,19,56,-9.70
2021,12,27,19,57,-9.70
2021,12,27,19,58,-9.70
2021,12,27,19,59,-9.70
2021,12,27,20,00,-9.70
2021,12,27,20,01,-9.60
2021,12,27,20,02,-9.60
2021,12,27,20,03,-9.60